Location: Les Thiberg�res
(47.8554°N, 1.0978°W)
Time: 08:38:21
(UTC+00:00)

Cosmos 1943 Rocket - Pass Details

Date: 17 February 2020
Orbit: 814 x 842 km, 71.0° (Epoch: 27 March)

Event Time Altitude Azimuth Distance (km) Brightness Sun altitude
Exits shadow 06:13:00 - 320° (NW) 3,059 4.7 -9.9°
Reaches altitude 10° 06:14:57 10° 311° (NW) 2,412 4.1 -9.6°
Maximum altitude 06:19:24 26° 257° (WSW) 1,561 3.1 -8.8°
Drops below altitude 10° 06:23:51 10° 202° (SSW) 2,398 4.4 -8.1°
Sets 06:26:37 0° 190° (S) 3,327 5.3 -7.6°
